Find Local Weather

World > North America > United States > Colorado

Wiley, Colorado Regional Weather

Lat: 38.16N, Lon: 102.72W
Wx Zone: COZ098
Warning FLW WEATHER ALERT - (More Info. Click Here) Warning
Feedback
Expires:201810231700;;619918
ASUS45 KBOU 231610
RWRCO 

WEATHER ROUNDUP FOR COLORADO
NATIONAL WEATHER SERVICE DENVER/BOULDER CO
1000 AM MDT TUE OCT 23 2018

NOTE: "FAIR" INDICATES FEW OR NO CLOUDS BELOW 12000 FEET WITH NO
SIGNIFICANT WEATHER AND/OR OBSTRUCTIONS TO VISIBILITY.


COZ086-089-092>099-231700-
...SOUTHEAST COLORADO...
  
CITY           SKY/WX    TMP DP  RH WIND       PRES   REMARKS
PUEBLO         FAIR      52  43  71 CALM      30.28F                  
LA JUNTA       CLOUDY    48  44  86 S5        30.28R                  
LAMAR          FAIR      50  44  80 E8        30.26R                  
SPRINGFIELD      N/A     49  47  93 NE6       30.27R                  
$$
  

SKY/WX - Weather  TMP - Temperature  DP - Dew Point  RH - Relative Humidity
WIND - Wind Direction/Speed PRES - Barometric Pressure